Wind_Speed
16 16 15 14 13 13 13 13 12 11 9 7 5 4 3 3 5 6 8 10 12 13 15 17 19 21 23 25 27 29 30 31 32 33 34 35 37 38 39 40 40 41 41 38 36 37 37 36 36 35 35 35 36 37 38 39 40 40 39 39 40 40 40 39 38 36 35 35 36 36 37 38 39 39 39 39 40 41 42 42 43 42 41 40 39
16 16 15 14 13 13 14 13 11 10 9 7 6 4 3 4 6 8 10 11 13 14 16 18 20 22 25 27 29 30 31 32 33 34 35 36 38 39 40 40 41 42 42 41 40 39 39 39 39 38 38 37 37 38 38 39 40 41 41 41 41 41 41 40 39 37 35 35 35 35 35 36 36 36 36 36 37 39 40 42 44 45 46 45 43
16 15 15 14 13 14 14 13 11 10 9 8 6 3 3 5 8 10 12 13 14 16 18 20 22 24 26 28 30 32 33 34 34 35 36 38 39 41 41 41 41 41 41 42 42 41 41 41 41 40 40 40 39 40 40 40 40 40 41 41 41 40 40 38 36 34 33 32 32 33 34 34 34 35 36 37 38 40 41 43 45 47 48 48 48
15 15 14 13 13 14 14 13 12 10 9 7 4 2 4 7 9 11 13 14 16 18 20 22 23 25 27 29 32 34 35 36 36 37 38 39 40 41 42 41 41 41 41 42 42 43 43 43 43 43 43 42 42 41 41 41 40 40 40 40 40 38 37 35 33 31 30 29 30 31 33 33 34 36 38 39 40 41 43 44 46 48 49 49 50
15 14 13 12 13 14 14 13 11 10 8 5 3 3 5 8 10 12 14 16 18 21 23 24 25 26 28 31 33 35 37 37 38 39 40 41 42 42 42 42 42 43 43 44 44 45 45 45 45 45 44 43 42 40 40 39 38 38 37 37 36 34 32 31 31 30 30 29 30 31 33 33 35 37 39 40 40 41 42 44 45 47 48 49 50
16 14 12 12 13 14 14 13 11 9 7 5 3 4 6 9 11 13 16 18 21 23 25 26 27 28 31 33 35 37 38 39 40 40 41 42 42 43 43 43 44 45 46 46 47 47 47 46 45 43 41 39 38 37 36 35 34 34 33 33 32 30 29 30 30 31 30 30 31 31 32 33 34 35 36 38 39 40 40 41 42 44 46 47 48
16 14 12 12 13 14 14 13 11 10 7 5 5 6 8 10 12 15 17 21 23 26 27 29 29 30 33 35 36 38 39 40 41 42 42 43 43 43 44 44 45 46 48 48 49 47 46 43 41 39 38 37 36 35 33 31 30 29 29 28 28 27 28 29 29 29 30 30 30 29 29 30 31 32 33 35 36 37 38 39 40 41 43 44 46
15 14 13 13 14 15 15 13 12 10 8 6 6 7 9 11 13 16 19 23 25 27 29 30 31 32 34 36 37 38 39 41 42 42 43 43 43 43 44 45 47 48 49 49 47 45 43 41 39 37 36 35 33 31 29 27 26 26 26 26 26 26 27 28 28 28 28 28 28 28 27 28 29 30 31 31 31 32 33 35 37 38 38 39 41
15 14 14 15 16 16 15 14 13 11 8 7 8 9 11 13 15 18 21 24 27 28 30 31 32 33 35 36 37 39 40 42 42 43 43 43 43 43 45 46 48 48 48 46 43 41 40 38 37 35 33 30 29 28 27 26 25 23 23 24 25 26 27 27 27 27 27 27 26 25 25 26 26 27 26 25 26 27 28 29 30 30 30 30 32
16 15 16 17 18 17 16 15 14 11 9 8 10 11 13 15 17 19 22 25 27 29 30 31 32 33 35 37 38 40 41 42 43 43 43 43 43 44 46 47 47 46 44 41 39 38 37 34 32 30 28 28 29 29 28 27 25 23 22 23 23 24 25 26 26 26 26 25 23 22 22 22 21 21 20 20 20 21 21 20 20 20 20 20 21
17 17 17 19 19 18 17 16 14 12 10 10 12 13 15 16 18 20 23 25 27 29 31 32 32 34 36 38 39 41 42 43 43 43 43 43 44 45 46 46 46 44 40 38 38 37 33 29 27 27 28 29 30 29 27 25 24 23 21 21 20 21 21 22 22 22 21 19 18 18 17 16 15 16 15 15 15 14 14 13 13 14 15 15 15
19 19 19 20 19 18 17 16 14 13 12 13 14 15 16 18 19 21 24 26 28 30 31 32 33 35 37 39 40 41 42 43 43 43 43 44 45 45 45 45 44 41 38 38 39 36 30 25 26 27 28 29 28 27 25 24 22 21 20 18 17 16 16 16 15 14 13 13 12 12 12 12 12 12 12 12 12 12 11 11 11 11 11 12 13
21 20 20 20 19 18 17 16 15 14 14 14 15 16 17 19 21 23 25 26 28 30 32 33 34 36 38 40 42 43 43 43 43 43 43 44 44 44 44 42 41 39 38 39 40 35 28 26 27 27 27 26 26 25 23 22 20 18 16 14 13 12 11 10 9 7 7 7 8 9 9 9 10 11 11 12 12 12 12 11 10 10 10 10 11
22 22 21 20 19 18 18 17 16 15 15 15 16 17 19 20 22 24 25 27 29 31 32 34 35 36 38 41 43 43 43 43 43 43 42 43 44 43 41 39 38 38 39 39 38 34 28 26 25 24 24 24 23 22 21 19 17 14 12 11 11 10 8 6 5 4 4 5 6 7 8 8 9 10 11 11 12 11 12 11 10 10 9 9 9
23 22 21 20 19 19 19 19 18 16 16 16 18 19 20 21 23 25 26 28 30 31 33 34 35 37 39 43 44 44 43 43 42 42 42 43 43 41 39 38 37 38 38 37 34 30 26 23 21 21 22 22 21 20 18 16 14 12 9 8 8 7 5 4 3 3 3 4 5 6 7 8 9 9 10 11 11 11 11 11 11 10 9 9 10
23 22 21 21 20 20 20 20 18 17 17 17 19 20 21 22 24 26 27 29 30 32 34 35 36 38 41 43 45 44 43 42 41 41 42 43 42 39 37 36 35 36 36 34 31 27 23 20 19 19 20 20 20 19 17 14 13 11 9 8 7 6 5 4 4 4 5 6 7 8 8 9 9 10 10 10 10 10 10 10 10 10 9 9 10
23 22 21 21 21 21 21 20 19 17 17 19 20 21 22 23 25 27 28 30 31 33 34 36 38 40 42 44 45 44 43 42 41 41 42 42 40 37 35 34 33 34 34 32 28 25 21 19 18 18 19 20 19 18 16 15 13 12 11 10 9 8 8 8 8 8 8 9 9 9 9 9 9 9 9 9 9 9 10 10 10 10 10 10 10
23 23 22 22 22 22 22 21 19 18 19 21 22 23 23 25 26 28 29 30 32 33 35 37 39 41 43 44 44 43 42 41 40 41 42 41 39 35 33 33 32 32 32 30 27 25 22 19 17 17 18 19 18 18 17 17 16 15 14 13 12 12 11 11 10 9 9 9 10 10 10 9 9 9 9 9 9 10 10 10 11 11 10 10 10
25 24 24 24 24 23 22 21 20 20 21 23 24 25 25 26 28 29 30 31 32 34 36 38 40 42 43 44 43 42 41 40 40 40 41 40 37 33 32 32 31 30 30 28 26 25 23 19 17 16 17 17 16 17 17 17 17 16 15 14 14 13 12 11 10 10 11 11 11 11 10 10 10 10 10 10 11 11 12 12 12 11 9 9 9
27 27 26 26 25 24 23 22 21 22 24 26 27 27 27 28 30 31 32 32 33 34 36 39 40 41 42 43 42 40 40 39 39 40 40 38 35 31 30 30 29 28 28 26 24 24 23 20 17 16 16 15 14 15 15 16 15 15 14 14 13 13 12 12 12 12 13 13 13 13 13 13 13 12 12 12 11 11 12 13 12 10 9 9 10
30 29 28 27 26 25 24 23 24 25 27 29 30 29 29 31 32 33 33 33 33 34 36 38 39 39 41 41 40 39 38 37 38 39 39 36 33 30 29 29 28 27 26 25 24 24 23 21 18 17 16 14 13 14 14 15 14 14 14 14 14 14 14 14 14 15 15 15 16 16 17 16 16 15 14 13 12 12 12 13 12 12 11 11 12
31 31 29 28 27 26 26 26 27 28 30 32 32 31 32 33 33 33 34 34 34 34 35 37 37 39 40 39 38 37 37 36 37 38 37 34 31 29 29 28 27 26 26 24 24 24 23 21 19 17 15 14 14 15 15 16 16 16 16 17 17 17 17 17 18 18 18 19 19 20 20 20 19 18 17 17 16 16 16 16 16 15 15 15 15
33 32 30 29 28 28 28 29 30 31 33 34 34 33 34 34 33 34 36 36 35 35 36 36 37 37 38 37 36 36 35 34 35 35 34 31 29 28 28 27 26 26 26 24 23 24 23 20 18 16 15 16 16 17 18 18 19 20 20 20 21 21 21 21 21 21 21 20 20 20 20 20 19 19 19 19 18 18 18 18 17 17 16 16 16
34 33 32 31 31 30 31 31 32 34 35 35 35 35 37 38 37 37 38 37 37 36 36 35 35 35 35 35 35 34 33 33 33 33 31 29 27 27 27 27 25 25 25 23 22 22 21 18 17 16 16 17 18 20 21 22 22 23 23 23 23 23 23 22 21 20 20 20 19 18 18 17 17 17 17 17 17 17 17 17 17 16 16 16 16
36 36 35 34 34 34 34 34 34 35 36 37 38 38 39 40 39 38 36 37 37 35 33 32 33 33 33 33 33 32 31 31 32 30 28 26 25 25 25 25 24 24 23 22 21 20 18 15 15 16 17 19 20 22 23 23 23 23 23 23 22 22 21 20 19 19 19 18 18 17 17 16 16 16 16 15 15 15 15 15 15 15 16 16 16
38 38 37 36 37 38 36 35 35 37 38 39 39 39 38 39 40 38 37 37 35 33 31 31 31 32 32 32 31 30 29 30 29 27 25 24 24 24 23 23 22 22 22 20 18 18 16 13 13 15 17 19 20 21 21 21 21 21 21 22 22 21 21 20 19 19 18 18 17 16 16 15 15 15 15 14 14 15 15 15 14 15 15 16 16
40 38 38 37 37 37 36 36 38 39 40 41 40 39 39 40 40 40 39 38 35 33 31 29 30 31 31 30 29 28 28 28 27 25 23 22 22 22 21 21 21 20 19 17 15 15 14 11 12 14 15 17 18 18 19 18 19 20 20 21 22 22 22 21 20 19 19 18 17 16 15 14 14 14 13 13 14 15 14 14 14 15 15 15 15
39 37 37 37 36 36 37 38 40 41 42 42 41 39 38 38 38 38 37 36 35 32 29 28 29 30 29 28 28 27 26 26 25 23 22 20 20 20 19 19 19 19 17 14 12 12 11 9 9 11 13 14 15 15 16 17 17 18 19 20 21 21 21 21 20 19 18 17 16 15 14 14 14 13 13 13 13 13 13 13 14 14 15 14 14
36 35 37 38 37 37 38 39 40 41 43 42 40 38 37 37 36 35 34 33 32 29 27 27 28 28 27 27 26 25 25 24 23 22 21 19 18 18 18 17 18 17 16 12 10 9 9 7 7 9 10 11 12 13 14 15 16 17 18 19 20 21 21 21 20 19 18 16 15 14 14 13 13 13 13 13 13 12 12 12 13 13 13 13 13
33 33 36 39 39 39 38 38 40 41 41 40 40 39 37 34 32 30 29 29 28 25 24 25 26 26 25 25 24 24 24 22 21 20 20 18 18 17 16 16 16 16 13 10 7 7 7 5 5 6 7 8 9 11 12 13 14 15 16 18 19 20 21 20 19 18 17 17 15 14 14 13 13 12 12 12 12 11 10 10 10 10 10 10 11
30 30 34 37 38 38 38 37 37 37 38 39 38 36 33 30 28 27 27 26 25 23 23 24 24 24 24 23 23 23 22 20 19 19 18 17 17 16 15 15 15 14 11 7 5 5 4 4 3 4 5 5 7 8 9 10 12 13 15 17 19 20 20 20 18 17 17 16 15 14 13 12 12 11 11 11 11 10 9 8 8 7 7 7 7
31 29 31 33 34 35 35 35 35 36 37 37 34 31 28 27 27 27 26 25 24 24 23 23 23 23 23 22 21 21 20 18 17 18 17 16 16 16 15 14 14 13 9 5 3 2 2 2 3 2 2 3 4 6 8 9 11 13 15 17 19 20 20 18 17 16 15 14 13 12 12 11 11 11 11 11 11 10 10 9 8 7 7 7 8
32 30 29 31 32 32 33 34 34 35 34 32 29 27 27 27 27 27 26 26 25 25 25 24 23 22 22 21 20 19 18 16 16 16 16 16 16 15 14 14 13 11 7 4 3 2 2 2 3 2 2 2 3 5 7 9 12 14 16 18 20 21 20 18 16 14 13 12 11 11 10 9 9 10 10 10 10 10 10 10 10 10 10 10 10
31 29 30 31 32 32 32 33 33 32 31 29 27 27 27 28 28 27 26 26 26 25 24 23 22 22 21 20 20 18 16 15 15 16 16 15 15 15 14 13 12 10 7 5 4 3 3 3 3 3 3 3 4 5 8 10 12 14 17 19 20 20 19 17 15 14 13 12 11 10 10 9 8 8 8 9 9 9 9 9 9 9 10 11 11
32 31 31 32 31 30 30 31 31 30 29 27 26 27 27 28 27 26 25 25 24 23 22 21 21 21 21 20 19 17 14 13 14 15 15 15 15 14 13 13 12 10 7 5 4 4 4 4 4 4 4 4 5 7 9 11 13 15 17 18 19 18 17 15 14 14 13 12 12 11 10 10 9 8 8 9 9 10 10 11 11 12 13 13 15
32 31 30 29 28 28 28 29 28 27 27 27 27 27 27 26 25 24 24 23 21 20 20 20 21 21 20 19 17 15 12 12 13 14 15 15 14 14 13 13 12 10 8 6 5 5 5 5 4 4 5 6 7 8 10 12 14 15 16 17 17 16 15 13 13 13 13 12 12 12 12 11 11 10 10 11 11 12 13 13 14 15 16 17 18
28 27 26 26 26 27 27 26 26 26 27 27 26 25 25 24 24 24 24 23 21 19 19 20 20 20 19 18 16 13 11 12 13 14 14 14 14 14 13 13 12 10 8 7 6 6 6 5 5 5 6 7 9 10 11 13 14 15 16 16 16 15 13 12 12 12 13 13 12 12 12 12 12 12 12 12 13 14 14 15 16 17 17 18 19
25 25 25 26 26 25 24 24 25 26 26 25 24 24 24 25 24 24 23 21 19 19 19 20 20 19 18 16 14 12 11 11 12 14 14 14 14 14 14 13 12 10 8 7 7 6 6 5 5 6 7 8 10 11 12 13 14 14 15 15 15 14 13 12 12 12 12 12 13 12 12 12 12 12 13 13 13 14 14 15 16 17 17 18 18
25 25 26 26 25 24 24 24 25 25 24 24 25 25 25 24 22 21 19 18 18 18 19 19 19 18 16 14 12 11 10 11 12 13 13 13 13 13 13 12 11 9 8 7 7 6 6 5 6 7 8 9 10 11 12 13 13 13 14 14 14 13 12 12 12 12 12 12 12 12 12 12 12 12 13 13 13 14 15 15 16 17 18 18 19
26 26 26 25 25 24 24 25 25 25 26 26 26 26 24 22 19 17 16 16 17 18 18 18 18 17 14 12 11 10 10 11 12 12 12 12 12 12 12 11 10 8 7 6 6 6 6 6 6 7 8 10 10 11 11 12 12 13 13 13 13 12 12 12 12 12 12 12 12 12 12 12 13 13 13 14 15 15 16 16 17 18 19 20 20
27 26 26 25 25 25 26 26 26 27 27 27 27 26 24 21 18 17 17 17 17 17 17 17 17 14 12 10 9 9 10 11 12 11 10 10 10 9 9 9 8 6 5 5 5 5 6 7 7 8 8 9 9 10 11 11 12 12 12 12 12 12 12 12 12 12 12 12 12 13 14 14 14 15 15 16 16 17 17 17 18 19 20 21 22
26 26 26 26 26 27 27 28 28 28 28 27 26 25 23 21 19 19 18 18 17 17 17 16 15 12 10 9 8 9 10 11 12 10 9 7 7 7 7 7 6 4 4 5 5 5 5 6 7 7 8 8 9 10 11 11 12 12 13 13 13 12 12 12 12 12 12 13 13 14 14 15 16 16 16 17 17 18 18 19 20 21 22 23 25
25 25 25 26 27 28 28 29 29 29 28 27 26 25 24 22 21 20 19 18 17 16 16 15 13 11 8 8 8 9 10 11 11 9 7 5 4 5 5 6 5 5 4 5 5 5 5 6 7 8 8 9 10 11 11 12 13 13 13 14 14 14 13 13 13 13 13 14 14 15 15 16 16 17 18 18 19 20 21 22 23 24 25 26 27
24 25 25 26 27 28 28 28 28 29 30 30 29 26 24 22 22 21 19 18 17 16 15 14 12 9 8 8 8 10 11 12 11 9 6 4 2 3 4 4 4 4 4 5 6 6 7 7 8 9 10 11 11 12 13 13 14 14 15 15 15 15 15 16 16 16 16 16 16 16 17 17 18 18 19 20 21 22 23 24 25 26 27 28 28
24 25 26 27 28 28 28 27 27 29 30 29 27 24 22 22 21 20 19 18 17 15 14 12 10 9 8 8 9 11 12 12 11 9 6 4 3 2 3 4 4 5 5 6 7 8 9 9 10 11 12 12 13 14 14 14 15 16 16 16 17 17 17 17 17 18 18 18 18 18 19 19 20 20 21 22 23 24 25 25 26 27 28 28 29
26 27 27 28 28 27 26 25 26 27 26 24 22 21 21 21 21 20 19 17 16 14 12 10 9 8 8 9 10 12 12 12 11 10 8 6 5 4 4 4 5 5 6 8 9 10 11 11 12 13 13 14 15 15 15 16 16 17 17 18 18 18 19 19 19 19 19 20 20 20 21 21 22 23 23 24 25 25 26 27 27 28 29 29 30
28 28 28 27 26 25 24 23 23 22 21 19 19 19 19 20 19 19 18 16 14 12 10 9 8 8 9 10 11 12 13 13 12 11 9 8 6 6 6 6 7 7 8 9 10 12 13 13 14 14 15 16 16 17 17 17 17 18 18 19 19 20 20 21 21 21 21 22 22 22 23 23 23 24 24 25 26 26 27 28 29 30 30 31 31
29 28 27 26 25 24 21 20 19 19 18 18 18 18 18 18 18 18 17 15 13 10 8 8 8 9 10 11 11 12 13 13 13 12 11 10 9 8 8 9 9 10 10 11 12 13 14 15 15 16 16 17 17 18 18 18 19 19 19 20 20 21 21 22 22 22 23 23 23 23 23 23 24 24 25 26 27 28 28 29 31 32 32 33 33
28 27 26 26 25 23 22 20 19 18 18 18 18 17 17 18 18 17 16 13 11 8 7 7 8 8 9 10 11 12 13 14 13 12 12 12 11 10 11 11 12 12 12 13 13 14 15 16 17 17 18 18 19 19 20 20 20 20 20 21 21 22 23 23 23 23 23 23 22 23 23 24 25 26 27 28 29 29 30 31 32 33 33 34 35
26 26 26 26 25 24 23 23 21 20 20 19 19 18 17 17 17 16 14 12 9 7 6 6 7 8 9 10 11 13 14 14 13 13 13 13 13 13 13 14 14 15 15 15 15 15 16 17 18 18 19 19 19 20 21 21 22 22 22 22 22 23 23 23 23 23 23 23 23 23 24 25 27 28 29 30 31 32 32 33 33 34 34 34 35
26 26 26 25 24 23 23 23 22 21 21 21 20 18 17 16 16 15 13 11 8 6 6 6 6 7 8 10 12 13 13 13 13 14 14 14 14 14 15 15 16 16 17 17 17 17 17 18 18 19 19 19 20 21 21 22 23 23 23 23 23 23 24 24 23 23 23 23 24 25 27 28 30 31 32 32 33 33 34 34 34 34 34 34 34
Wind_Direction
176 179 182 184 185 186 186 186 186 184 183 184 185 199 235 276 297 302 304 307 314 324 331 334 337 338 338 338 338 337 335 332 329 327 326 324 324 322 321 320 318 316 316 315 311 308 307 306 304 302 299 297 297 297 297 297 298 297 296 294 292 291 290 289 287 284 278 273 271 269 268 268 268 269 269 270 271 273 275 277 277 276 273 269 265
179 181 183 185 186 187 190 192 193 192 191 191 194 209 250 289 304 305 306 312 322 329 332 335 337 338 338 337 336 334 332 330 328 327 327 326 325 324 323 322 320 318 316 316 314 312 310 309 307 305 303 301 299 297 296 295 295 294 294 293 291 290 289 288 287 286 282 275 272 270 267 266 265 266 267 267 267 269 271 272 274 274 274 272 269
184 186 187 188 188 189 193 197 201 201 199 197 201 224 283 307 312 313 316 322 328 330 331 332 333 334 333 332 331 331 330 330 329 329 328 328 328 327 325 323 321 319 317 315 314 312 311 309 307 305 304 302 300 298 296 294 293 292 291 290 289 288 288 288 287 285 281 276 272 270 267 266 267 267 268 268 268 268 268 268 269 271 271 272 272
189 191 192 193 193 194 198 204 209 210 206 204 213 265 310 315 316 319 322 327 329 328 327 327 328 328 328 328 328 329 330 330 330 330 331 331 330 328 326 324 321 319 317 315 314 312 311 309 307 305 304 303 301 300 297 295 293 292 290 289 288 288 289 289 287 283 280 277 273 271 270 270 270 270 270 270 269 268 267 267 267 269 270 271 272
194 197 197 197 198 201 206 212 216 217 214 217 241 294 312 316 317 321 324 327 327 325 324 324 325 325 325 327 328 329 330 330 331 332 333 332 331 329 327 325 322 320 318 316 315 314 312 310 308 307 306 305 303 301 299 297 295 292 291 289 289 290 290 288 286 283 281 280 278 276 275 274 273 273 273 272 270 269 267 267 267 268 269 270 270
196 198 200 203 205 209 215 219 222 222 223 234 264 296 310 315 317 321 323 323 321 320 321 323 324 326 328 330 331 330 330 331 332 334 334 334 332 330 328 326 324 321 320 318 318 316 314 313 311 310 309 307 305 304 302 299 296 294 292 291 291 290 288 285 284 284 283 283 283 281 279 277 275 274 274 273 273 273 272 270 269 268 268 269 269
199 197 200 206 211 217 223 226 227 228 232 246 274 296 307 311 314 318 319 317 316 317 322 325 327 329 331 332 331 330 330 332 334 335 335 335 333 331 328 326 324 323 322 321 320 319 318 317 315 314 312 311 309 308 307 304 302 299 296 295 293 290 287 284 284 284 285 285 284 282 279 278 276 275 275 275 276 276 276 274 272 270 268 267 267
205 200 201 207 214 221 228 232 233 232 237 254 277 292 300 304 308 313 314 313 314 319 325 328 330 331 331 331 329 329 331 333 335 336 336 335 333 330 328 327 327 326 325 323 322 321 321 319 317 315 314 313 313 313 313 311 307 304 301 298 295 291 287 285 285 284 284 283 282 281 279 278 279 279 280 281 281 279 277 275 274 272 269 267 266
208 205 206 211 216 222 228 234 237 237 242 258 275 286 293 298 304 309 312 313 317 322 326 329 330 330 329 329 327 329 332 334 335 336 336 335 333 331 330 330 330 327 325 324 323 321 319 317 316 316 316 317 319 319 318 314 309 305 300 295 291 289 287 287 286 285 284 283 282 281 281 281 282 283 285 286 285 283 280 277 276 274 272 269 268
209 208 211 216 220 223 227 233 237 241 247 260 273 282 288 295 302 308 311 315 319 323 326 328 328 328 328 328 328 330 333 334 335 337 337 335 334 333 333 332 329 327 325 326 326 323 319 318 318 320 322 323 322 320 317 314 311 307 302 296 292 289 288 287 287 285 284 284 283 281 281 284 286 287 288 288 288 289 288 285 283 281 278 274 271
209 209 214 221 225 226 228 232 237 242 250 262 272 280 287 294 301 307 311 315 319 322 324 326 327 328 328 328 329 331 334 335 336 337 337 336 336 335 334 331 330 329 329 331 331 327 323 322 324 326 326 324 321 320 319 317 315 312 308 302 297 293 289 287 285 284 282 281 280 281 284 286 286 286 289 293 296 298 300 301 300 293 284 279 276
210 211 216 222 227 229 230 233 237 244 253 264 273 280 287 294 300 305 310 314 318 321 323 325 326 328 329 329 330 333 336 336 337 338 338 338 337 336 334 332 332 333 334 335 335 331 326 326 329 329 326 324 324 325 324 320 317 314 310 306 303 300 296 291 287 283 280 279 281 284 286 287 288 291 298 305 308 312 315 317 314 306 292 284 280
211 213 218 223 228 232 234 236 239 246 255 265 274 281 287 292 298 304 309 313 317 320 322 323 325 328 329 330 333 335 337 336 337 339 339 338 338 336 334 333 335 338 338 336 335 333 329 329 330 329 329 330 330 328 326 324 322 319 317 317 318 317 309 300 294 290 287 287 289 291 293 297 304 309 313 317 318 318 320 320 318 313 303 293 285
211 214 218 223 229 234 237 239 242 249 258 268 275 281 286 292 298 303 307 312 316 318 321 323 325 327 330 332 334 335 336 337 339 340 339 338 338 336 335 337 340 341 340 335 333 333 332 330 331 333 335 336 333 332 333 333 331 331 334 340 344 341 334 330 327 323 314 306 303 305 312 320 324 324 325 328 328 325 323 322 320 315 309 301 295
212 216 220 225 230 234 237 240 245 252 261 269 276 281 286 293 298 302 306 311 314 317 320 322 324 328 331 332 332 333 335 337 339 339 339 340 340 337 337 341 343 342 339 335 333 335 336 336 338 342 343 341 341 342 345 345 345 347 355 8 19 19 18 20 8 348 338 335 338 342 346 347 345 343 342 341 339 337 333 328 324 319 312 304 300
213 217 222 227 231 234 237 242 248 255 263 270 275 281 287 293 297 301 305 309 312 315 318 321 324 328 330 330 330 332 335 337 339 339 341 341 340 338 339 343 344 342 339 336 336 341 345 346 348 350 351 352 354 354 356 1 4 6 11 25 41 49 53 53 43 33 30 26 22 19 13 6 0 355 351 349 347 344 341 336 329 324 320 313 307
213 217 223 228 231 234 238 244 251 257 264 270 275 281 286 292 296 299 303 307 310 313 317 320 325 328 329 327 328 331 334 337 339 340 342 342 340 338 340 343 344 343 341 339 343 349 350 349 352 356 -0 3 6 7 12 19 25 28 32 38 48 54 55 54 52 50 46 40 33 26 18 11 8 5 2 0 356 349 348 348 340 333 329 323 316
214 217 223 228 231 234 239 246 253 259 265 270 275 280 285 290 294 296 300 304 308 311 315 319 324 327 327 325 326 330 334 336 339 341 342 342 340 339 343 345 345 344 343 343 348 354 354 350 353 1 7 11 15 20 26 33 38 42 45 50 55 59 59 58 56 50 41 32 24 17 12 10 8 8 9 7 359 351 354 356 348 340 335 329 325
218 219 223 227 230 234 240 247 254 260 265 269 274 278 283 286 290 293 298 302 305 309 313 318 322 324 324 324 326 330 334 336 339 341 342 342 340 341 346 348 346 346 345 346 351 358 358 353 355 3 9 12 17 23 28 34 39 41 44 47 50 51 50 47 41 34 28 24 20 17 17 15 12 8 7 6 357 351 354 356 350 345 343 341 339
221 222 225 229 231 234 241 248 254 259 264 269 273 276 280 284 289 292 295 299 303 308 312 316 320 322 323 323 326 331 333 336 339 341 342 341 340 343 349 350 349 348 347 348 354 0 1 359 0 5 8 9 12 18 24 29 33 35 37 39 41 40 38 35 32 31 32 31 29 28 27 25 21 16 12 9 3 359 2 3 0 359 0 357 351
223 224 227 230 232 236 242 248 254 259 263 268 272 277 281 285 288 291 294 297 302 308 311 314 319 322 322 324 327 331 333 337 340 341 341 340 340 346 352 352 351 351 350 350 357 3 3 4 6 8 9 9 14 21 27 30 32 34 36 39 41 41 41 41 41 42 43 43 41 40 38 35 31 28 25 22 19 21 26 29 29 31 31 25 18
226 227 229 231 234 239 244 249 254 259 264 268 273 279 283 284 286 290 294 298 302 306 310 314 318 320 321 323 327 331 333 337 340 341 340 338 340 347 352 352 352 353 352 354 1 5 6 8 11 14 17 22 28 35 40 42 44 46 48 50 52 52 52 52 53 54 54 53 52 50 48 45 43 41 41 42 42 44 48 52 53 53 51 47 42
228 229 231 234 237 241 246 251 255 260 265 270 275 281 284 284 287 293 296 298 301 304 309 313 316 317 319 323 327 330 333 337 341 341 339 337 341 347 351 351 352 353 352 356 4 7 7 11 17 24 33 39 45 50 53 55 57 59 59 60 60 60 59 57 57 57 56 55 53 52 50 47 46 45 45 47 50 52 55 56 57 56 54 50 46
228 229 231 234 238 241 246 252 257 262 267 272 277 281 284 285 290 295 295 296 299 303 307 311 313 315 318 323 327 330 333 337 341 341 337 336 341 347 349 349 350 351 351 356 6 9 8 15 26 36 46 53 57 60 62 62 63 63 62 61 59 58 56 53 51 51 50 48 47 45 44 43 42 42 43 44 47 49 50 51 51 50 48 45 43
227 229 232 235 239 242 246 251 258 264 269 273 277 279 281 285 290 294 295 297 299 303 307 310 311 313 318 323 327 329 333 338 341 340 335 335 341 345 346 346 347 348 349 355 6 10 9 20 37 48 57 64 65 66 65 64 62 61 58 56 53 51 49 46 43 42 40 38 37 36 35 34 35 37 38 39 43 45 46 46 46 46 45 43 42
228 231 235 238 242 245 248 253 259 265 268 271 274 277 281 287 291 292 296 300 303 305 307 308 309 313 319 323 326 329 333 338 341 338 333 335 341 344 344 344 345 346 347 352 4 11 11 25 49 61 67 70 70 69 67 63 60 56 53 49 46 43 40 38 35 34 32 29 28 28 28 28 31 34 35 37 42 45 46 45 45 46 46 44 42
232 237 239 240 243 247 251 254 259 263 266 270 276 282 285 289 291 291 295 301 304 305 305 304 306 312 318 322 325 328 333 338 340 336 330 334 341 342 342 343 343 344 345 349 2 13 14 27 54 66 70 72 71 69 65 60 55 51 47 43 40 36 34 32 30 29 27 25 24 25 26 28 32 36 37 39 44 46 45 45 46 49 49 47 47
232 240 242 242 245 248 251 254 257 261 266 272 280 286 287 289 292 294 297 301 302 301 300 300 305 312 318 321 324 328 333 338 338 332 328 333 339 340 340 342 342 342 342 347 2 16 18 29 54 67 71 71 69 65 60 54 49 45 41 37 34 31 29 27 26 26 25 23 24 27 29 31 35 37 38 40 44 46 46 47 50 54 56 56 56
234 242 240 240 244 247 249 254 258 262 267 272 279 286 289 292 295 297 299 301 300 298 297 298 304 312 317 320 324 328 333 337 335 328 326 331 336 338 339 341 341 341 341 345 2 19 21 29 51 66 71 70 66 59 53 47 42 37 34 30 27 24 22 21 20 21 21 21 23 27 30 32 35 37 37 39 40 42 46 50 55 60 62 62 62
238 241 237 238 243 247 251 255 257 261 268 273 278 285 289 294 297 298 300 301 299 297 296 299 306 312 316 319 324 328 333 335 331 324 324 328 333 335 337 340 341 341 340 343 358 15 20 22 40 58 65 66 59 51 44 39 34 30 27 23 18 16 14 13 13 14 16 16 19 22 26 30 33 34 34 35 36 38 42 48 55 59 61 61 60
240 240 239 240 244 248 250 252 255 263 272 278 282 286 290 295 298 299 301 302 301 299 298 301 307 312 316 319 323 328 332 332 326 320 321 326 331 334 336 339 340 339 338 337 350 9 14 9 19 43 57 58 51 41 33 28 24 21 18 15 12 9 7 6 6 9 10 10 12 16 20 24 28 30 29 28 28 29 31 35 40 46 48 47 43
247 242 239 241 245 247 249 253 261 271 278 281 284 288 291 295 297 297 298 300 300 299 298 301 307 312 315 318 323 327 330 328 320 317 320 325 329 333 336 338 338 336 331 323 329 353 359 345 349 14 35 40 33 23 15 11 8 8 8 7 5 4 3 2 3 6 8 7 7 10 13 17 20 22 23 22 20 18 17 16 15 15 14 13 11
248 241 238 241 246 251 256 263 271 276 278 281 285 290 292 293 293 293 295 296 296 295 296 300 307 311 313 317 321 325 327 323 316 315 318 322 327 332 335 337 336 330 319 303 300 315 319 318 326 337 351 2 2 0 358 355 356 357 359 359 359 359 359 1 3 6 9 9 7 7 10 13 13 13 14 16 15 13 11 9 4 0 357 355 354
243 240 240 244 249 256 264 270 274 276 279 284 289 291 292 292 293 293 293 292 291 291 294 300 307 311 312 315 320 324 324 318 312 313 316 320 324 330 334 336 334 324 305 288 287 294 298 306 319 326 327 327 331 338 341 343 347 350 351 352 353 354 356 358 2 6 10 12 10 7 8 10 10 8 7 7 6 5 3 0 355 351 347 344 343
243 244 245 248 254 261 267 271 275 279 284 288 291 292 292 292 293 294 293 290 288 290 296 302 307 309 310 314 318 322 320 312 308 311 314 316 321 326 330 334 331 320 299 282 282 289 292 301 315 322 323 320 321 327 332 336 340 343 344 345 348 351 354 358 2 6 10 12 9 6 3 3 3 2 358 355 353 352 350 347 343 340 338 337 337
246 247 249 252 258 263 268 272 277 282 287 289 290 290 289 290 291 292 291 289 290 294 299 304 306 306 308 312 318 321 315 305 304 308 311 313 317 322 328 331 328 317 299 281 277 282 287 297 312 322 327 328 328 330 332 334 335 337 337 340 345 350 356 0 3 6 8 8 6 3 359 357 356 354 350 347 345 343 342 340 338 337 335 335 336
244 246 250 255 260 264 270 275 280 285 287 288 288 287 287 287 287 287 287 288 291 296 300 301 303 303 306 311 319 319 309 300 302 306 308 309 314 321 327 328 324 315 300 281 273 275 282 295 314 326 333 335 335 334 334 333 332 334 335 339 344 350 356 3 6 7 5 3 2 1 358 356 354 351 348 346 343 341 339 337 336 336 337 337 337
247 250 253 258 262 267 272 277 282 285 286 286 286 286 286 285 285 284 284 286 289 293 296 298 300 301 305 313 319 315 304 297 300 303 304 307 313 321 327 325 320 312 299 282 273 274 283 299 319 330 335 336 335 333 333 333 334 336 339 342 346 351 358 4 9 9 5 1 360 360 358 357 355 353 350 348 346 344 343 341 340 340 340 340 339
249 253 257 262 265 268 273 277 280 283 286 287 287 286 286 285 285 284 284 284 286 290 293 295 297 299 306 315 317 309 298 295 297 300 302 306 315 325 329 327 322 313 296 281 276 279 289 305 320 330 333 333 332 333 335 337 340 344 346 348 350 356 2 6 9 10 8 4 1 1 359 359 358 357 354 352 351 349 348 346 344 342 341 340 340
248 254 258 262 265 268 272 274 277 281 285 287 286 285 285 286 287 285 283 282 285 288 290 292 294 298 308 315 311 300 292 293 295 296 300 308 320 330 333 332 327 315 295 280 276 283 295 307 319 326 330 331 334 338 341 344 348 352 353 353 354 359 5 7 8 9 8 6 3 0 358 358 358 357 354 351 350 349 347 345 342 340 338 338 337
245 252 257 261 265 270 272 272 273 279 284 284 282 281 282 283 283 281 280 281 283 285 287 288 291 299 309 312 301 288 285 288 290 292 298 310 325 335 340 341 339 326 301 284 281 288 301 311 319 328 335 338 342 346 348 350 353 356 357 357 357 358 2 5 5 4 3 2 359 356 353 352 351 350 348 346 344 343 342 340 338 336 335 333 332
244 251 257 262 268 272 271 270 272 277 281 282 280 277 277 279 278 277 277 279 281 282 283 285 291 300 307 302 287 277 277 281 283 286 295 311 328 340 348 355 357 346 318 303 303 309 315 321 328 336 342 345 346 347 348 350 353 354 354 354 353 352 354 355 355 354 352 351 349 347 345 344 343 342 341 340 338 337 336 334 332 331 330 329 328
245 252 258 266 271 273 272 272 272 274 278 281 279 276 274 274 274 274 275 277 279 280 282 285 291 299 299 285 271 266 270 273 274 277 285 303 326 342 350 358 2 356 337 324 323 329 334 337 339 341 343 344 345 345 345 346 347 347 346 345 343 343 343 342 342 341 340 340 340 339 338 337 336 336 335 334 333 332 331 330 329 328 327 327 326
248 254 261 268 271 271 272 273 273 275 279 281 278 273 270 270 271 272 274 276 277 278 281 286 292 294 285 270 259 258 262 264 263 264 267 276 299 326 340 345 348 348 339 330 330 335 338 340 341 341 341 342 342 341 342 342 341 341 340 339 337 337 337 336 335 335 335 336 335 334 333 332 331 331 330 330 329 329 328 327 327 327 326 327 326
251 256 262 266 268 270 272 274 276 280 282 279 272 267 265 267 269 270 272 274 275 276 279 285 289 285 273 260 254 255 256 255 252 251 248 242 246 276 304 314 320 328 329 327 329 332 335 337 339 339 339 339 338 338 338 339 338 337 336 335 334 334 333 333 333 333 332 332 331 329 328 328 328 328 328 327 327 327 327 327 327 327 327 327 327
251 255 258 262 267 270 273 276 280 283 281 273 264 261 263 265 266 268 270 271 271 273 278 282 282 274 263 254 251 252 252 247 243 243 239 231 232 248 269 284 296 309 318 323 327 332 334 336 337 337 336 336 335 335 335 335 335 334 333 332 331 331 330 329 329 329 328 328 327 327 327 327 327 327 327 328 328 328 328 328 328 328 327 327 326
249 251 255 260 264 268 272 276 280 281 276 268 262 261 261 262 263 265 266 266 267 270 276 278 272 263 255 249 248 250 247 240 237 239 238 233 232 243 257 270 282 293 305 314 322 328 332 334 335 335 335 334 332 331 331 331 330 330 329 328 328 327 327 326 326 325 325 326 326 326 327 327 328 328 328 328 328 328 328 328 328 327 326 326 325
247 250 254 258 262 265 267 272 277 278 273 267 263 261 259 260 263 264 263 262 263 268 272 269 262 256 250 247 247 247 242 236 235 238 239 236 238 244 254 264 275 284 294 304 312 319 325 329 332 333 333 332 330 328 327 326 325 325 325 324 324 324 324 324 323 324 324 325 326 327 328 328 328 328 328 327 327 327 327 326 326 325 324 324 323
247 250 254 258 262 263 262 263 270 277 276 267 261 258 259 262 264 264 261 259 261 265 267 264 257 249 244 242 241 238 233 233 236 240 241 241 245 250 256 264 271 278 286 294 302 309 315 321 326 329 330 330 329 327 324 322 321 321 320 321 321 322 322 322 323 323 324 325 325 326 327 327 326 326 325 325 325 324 324 324 323 323 322 321 321
248 252 256 260 263 264 260 259 264 274 277 270 262 258 259 261 262 262 260 259 260 262 260 255 249 241 236 233 231 228 228 233 239 244 245 246 249 253 259 265 272 277 283 289 295 301 307 313 319 323 326 327 327 326 324 322 320 318 318 318 319 320 321 321 322 322 322 323 323 324 324 324 323 323 323 322 322 322 322 321 321 320 320 319 318
250 254 257 260 262 263 261 259 262 269 272 269 263 259 259 260 260 260 259 258 256 255 251 245 241 235 229 226 226 228 232 238 244 247 250 252 254 257 262 267 272 277 282 287 292 297 302 307 312 316 319 321 323 323 323 321 320 318 317 317 317 318 319 319 320 320 320 320 321 321 321 321 321 321 321 320 320 320 320 319 319 319 318 318 317
Height
5920 5921 5922 5923 5924 5925 5926 5926 5927 5928 5928 5928 5929 5929 5929 5930 5930 5929 5928 5928 5927 5926 5924 5923 5921 5920 5918 5917 5915 5913 5911 5909 5907 5904 5901 5898 5895 5892 5889 5885 5881 5876 5874 5873 5871 5868 5865 5863 5862 5859 5857 5854 5851 5848 5844 5840 5838 5836 5835 5835 5834 5832 5832 5831 5831 5832 5832 5832 5831 5831 5831 5830 5829 5829 5828 5828 5827 5825 5824 5824 5824 5825 5826 5828 5829
5919 5920 5921 5922 5923 5924 5925 5926 5927 5927 5927 5927 5928 5928 5928 5929 5928 5928 5927 5926 5925 5924 5923 5922 5920 5918 5917 5916 5914 5912 5910 5907 5904 5901 5898 5895 5892 5888 5885 5881 5877 5873 5869 5866 5864 5861 5859 5857 5855 5853 5851 5848 5846 5843 5840 5837 5834 5832 5830 5829 5828 5827 5826 5825 5825 5825 5825 5825 5825 5825 5825 5824 5824 5824 5823 5823 5822 5822 5821 5820 5819 5819 5819 5820 5822
5918 5919 5920 5921 5923 5924 5925 5926 5926 5926 5926 5927 5927 5927 5927 5927 5927 5926 5926 5925 5924 5923 5922 5920 5919 5917 5916 5914 5912 5910 5907 5904 5901 5898 5895 5891 5888 5884 5881 5877 5874 5870 5866 5862 5859 5856 5853 5850 5848 5846 5844 5842 5840 5837 5835 5833 5830 5828 5826 5824 5822 5821 5820 5819 5819 5819 5818 5818 5819 5819 5818 5818 5819 5818 5818 5817 5817 5817 5816 5815 5815 5814 5813 5814 5815
5917 5919 5920 5921 5922 5924 5924 5925 5925 5925 5926 5926 5926 5926 5925 5925 5925 5925 5925 5924 5923 5922 5920 5919 5918 5916 5915 5912 5910 5907 5904 5900 5897 5894 5891 5888 5884 5881 5877 5873 5870 5866 5862 5858 5855 5851 5848 5844 5841 5838 5836 5834 5832 5830 5827 5825 5823 5821 5819 5817 5816 5815 5814 5813 5812 5812 5812 5812 5813 5813 5813 5813 5813 5812 5811 5811 5811 5811 5810 5810 5810 5809 5809 5809 5809
5917 5918 5920 5921 5922 5923 5924 5924 5924 5924 5924 5925 5925 5924 5924 5924 5924 5924 5923 5923 5922 5921 5920 5918 5917 5915 5913 5910 5907 5903 5900 5897 5894 5891 5888 5884 5881 5877 5873 5869 5865 5862 5858 5854 5850 5846 5842 5838 5835 5831 5829 5826 5824 5822 5819 5817 5815 5813 5811 5810 5809 5808 5807 5806 5805 5805 5805 5806 5807 5807 5807 5807 5807 5806 5805 5804 5804 5804 5804 5805 5805 5805 5804 5803 5803
5916 5918 5919 5921 5922 5922 5923 5923 5923 5923 5923 5923 5923 5923 5923 5923 5923 5923 5922 5922 5921 5920 5919 5918 5915 5913 5910 5907 5904 5901 5898 5894 5891 5887 5884 5880 5877 5873 5869 5865 5861 5857 5853 5848 5844 5840 5836 5832 5828 5825 5822 5819 5817 5815 5813 5810 5808 5806 5804 5803 5803 5802 5801 5800 5800 5799 5799 5800 5801 5801 5801 5801 5800 5800 5799 5798 5798 5799 5799 5800 5800 5799 5798 5797 5797
5915 5917 5919 5920 5921 5921 5921 5921 5921 5921 5922 5922 5922 5922 5922 5922 5922 5922 5921 5921 5920 5919 5918 5916 5913 5909 5907 5904 5901 5898 5895 5891 5888 5884 5880 5877 5873 5869 5865 5861 5857 5853 5848 5844 5839 5835 5830 5826 5823 5819 5816 5814 5811 5809 5807 5805 5803 5801 5799 5798 5797 5796 5795 5795 5795 5795 5795 5795 5795 5795 5795 5795 5795 5795 5795 5794 5794 5794 5794 5794 5793 5792 5792 5791 5791
5914 5916 5917 5919 5919 5919 5920 5920 5920 5920 5921 5921 5921 5921 5921 5921 5921 5921 5920 5919 5918 5917 5915 5912 5909 5907 5904 5901 5898 5895 5892 5888 5885 5881 5877 5873 5869 5866 5862 5858 5853 5848 5843 5839 5834 5830 5826 5822 5818 5815 5812 5810 5807 5805 5803 5801 5799 5797 5796 5794 5793 5791 5791 5790 5791 5791 5791 5791 5791 5791 5791 5791 5791 5791 5790 5790 5790 5789 5789 5788 5786 5786 5786 5786 5785
5914 5915 5916 5917 5917 5917 5918 5918 5919 5919 5919 5920 5920 5920 5920 5920 5919 5919 5918 5917 5915 5914 5912 5909 5907 5904 5901 5899 5896 5892 5889 5885 5882 5878 5874 5870 5866 5863 5859 5854 5849 5844 5840 5835 5831 5827 5823 5819 5815 5812 5809 5807 5804 5802 5799 5797 5795 5794 5792 5790 5789 5788 5787 5787 5787 5787 5787 5787 5788 5788 5788 5788 5788 5787 5787 5787 5786 5785 5784 5783 5781 5781 5781 5781 5782
5912 5913 5914 5915 5915 5915 5916 5917 5917 5918 5918 5918 5918 5918 5918 5918 5917 5917 5915 5914 5913 5911 5909 5907 5904 5902 5899 5896 5893 5889 5885 5882 5878 5875 5871 5867 5863 5859 5855 5850 5846 5842 5837 5832 5828 5824 5820 5816 5813 5810 5807 5804 5802 5799 5796 5793 5791 5790 5789 5787 5786 5785 5784 5784 5783 5784 5784 5784 5785 5785 5785 5785 5785 5784 5784 5784 5783 5781 5780 5779 5778 5777 5777 5777 5778
5910 5911 5912 5913 5913 5913 5914 5915 5916 5916 5917 5917 5917 5917 5917 5916 5915 5914 5913 5912 5911 5909 5907 5904 5902 5899 5896 5893 5890 5886 5882 5879 5875 5871 5868 5864 5860 5855 5851 5847 5843 5838 5834 5829 5825 5820 5817 5814 5811 5808 5805 5802 5799 5796 5793 5790 5788 5787 5785 5784 5783 5782 5781 5781 5781 5781 5781 5782 5782 5782 5783 5783 5783 5782 5782 5781 5780 5779 5777 5776 5776 5775 5774 5774 5775
5908 5909 5910 5911 5911 5912 5913 5913 5914 5915 5915 5915 5915 5915 5914 5914 5913 5912 5911 5910 5908 5906 5904 5902 5899 5896 5893 5890 5887 5883 5879 5876 5872 5869 5864 5860 5857 5852 5848 5844 5840 5835 5831 5827 5823 5818 5815 5812 5809 5806 5803 5800 5797 5793 5790 5788 5786 5784 5782 5781 5780 5779 5779 5778 5779 5779 5779 5780 5780 5780 5781 5781 5780 5780 5779 5779 5778 5777 5776 5775 5774 5773 5772 5773 5773
5906 5907 5908 5909 5910 5911 5911 5912 5912 5913 5913 5913 5913 5913 5912 5911 5911 5910 5909 5907 5905 5903 5901 5899 5896 5894 5891 5887 5884 5880 5877 5873 5870 5866 5862 5858 5854 5850 5846 5841 5837 5833 5829 5824 5820 5817 5813 5810 5807 5804 5801 5798 5795 5791 5789 5786 5784 5782 5780 5779 5778 5777 5777 5777 5777 5778 5778 5779 5779 5779 5779 5779 5778 5778 5777 5776 5776 5775 5774 5774 5773 5772 5772 5772 5772
5904 5905 5906 5908 5909 5909 5910 5910 5910 5911 5911 5911 5911 5910 5910 5909 5909 5908 5906 5904 5903 5901 5899 5896 5894 5891 5888 5885 5881 5878 5875 5871 5867 5863 5859 5856 5852 5848 5844 5840 5836 5831 5827 5823 5819 5815 5812 5809 5806 5803 5800 5797 5794 5790 5787 5784 5782 5780 5779 5778 5777 5777 5777 5777 5777 5777 5778 5778 5778 5778 5778 5778 5777 5776 5776 5775 5774 5774 5773 5772 5772 5772 5771 5771 5771
5903 5904 5905 5906 5907 5907 5908 5908 5908 5909 5909 5909 5909 5908 5908 5907 5907 5905 5903 5902 5900 5898 5896 5894 5892 5889 5885 5882 5879 5876 5873 5869 5865 5861 5857 5854 5850 5846 5842 5838 5834 5830 5826 5822 5818 5814 5811 5808 5806 5803 5800 5797 5793 5790 5787 5784 5782 5780 5779 5778 5777 5777 5777 5777 5778 5778 5778 5778 5778 5778 5778 5777 5776 5776 5775 5774 5773 5773 5772 5772 5771 5770 5771 5771 5770
5901 5903 5904 5904 5905 5905 5906 5906 5906 5907 5907 5907 5907 5906 5906 5905 5904 5902 5901 5899 5898 5896 5894 5892 5889 5886 5883 5880 5877 5874 5871 5867 5863 5859 5855 5851 5848 5844 5840 5836 5833 5829 5825 5821 5818 5814 5811 5808 5805 5803 5800 5797 5793 5790 5787 5784 5782 5781 5779 5779 5778 5778 5778 5778 5779 5779 5779 5779 5778 5778 5777 5776 5776 5775 5774 5773 5773 5772 5771 5771 5770 5769 5769 5769 5769
5900 5901 5902 5903 5903 5903 5904 5904 5905 5905 5905 5905 5904 5904 5903 5902 5901 5899 5898 5897 5895 5893 5892 5889 5887 5884 5881 5878 5875 5872 5869 5865 5861 5857 5853 5850 5846 5842 5839 5835 5832 5828 5825 5821 5817 5813 5810 5808 5805 5803 5800 5797 5794 5791 5788 5786 5784 5782 5781 5780 5780 5780 5779 5779 5779 5779 5779 5779 5778 5778 5777 5776 5775 5774 5774 5773 5772 5771 5770 5770 5769 5768 5768 5768 5768
5898 5899 5900 5901 5901 5902 5902 5903 5903 5904 5903 5902 5901 5901 5900 5899 5898 5896 5895 5894 5892 5891 5889 5887 5884 5882 5879 5876 5873 5870 5866 5862 5858 5855 5851 5848 5844 5841 5837 5834 5831 5827 5824 5821 5817 5813 5810 5808 5805 5803 5800 5798 5795 5793 5790 5787 5785 5784 5783 5782 5781 5781 5781 5780 5780 5780 5780 5779 5779 5778 5777 5776 5775 5774 5773 5772 5771 5770 5770 5769 5768 5768 5767 5767 5767
5896 5897 5898 5899 5900 5900 5901 5901 5901 5901 5900 5899 5898 5898 5897 5896 5895 5893 5892 5891 5890 5888 5886 5884 5882 5880 5877 5874 5871 5868 5864 5860 5856 5853 5850 5846 5843 5840 5836 5833 5830 5827 5824 5821 5817 5814 5810 5808 5805 5802 5800 5798 5796 5794 5792 5789 5787 5786 5785 5784 5783 5783 5782 5782 5781 5781 5780 5779 5778 5778 5777 5776 5775 5774 5773 5772 5771 5770 5769 5769 5768 5767 5767 5767 5766
5893 5894 5895 5896 5897 5898 5899 5899 5899 5898 5897 5896 5895 5894 5894 5893 5892 5891 5890 5888 5887 5885 5884 5882 5879 5877 5875 5872 5869 5866 5862 5858 5854 5851 5848 5845 5841 5838 5835 5832 5830 5827 5824 5821 5817 5814 5811 5808 5805 5803 5801 5799 5797 5795 5793 5791 5789 5788 5787 5786 5785 5784 5783 5782 5781 5781 5780 5779 5779 5778 5777 5776 5775 5774 5773 5772 5771 5770 5769 5768 5768 5767 5767 5767 5766
5890 5891 5892 5893 5895 5896 5896 5896 5896 5895 5893 5893 5892 5892 5891 5891 5890 5888 5887 5886 5884 5883 5881 5879 5877 5875 5872 5870 5867 5864 5860 5856 5852 5849 5846 5843 5840 5837 5835 5832 5830 5827 5824 5821 5818 5814 5811 5808 5806 5803 5801 5800 5798 5796 5794 5792 5791 5790 5789 5788 5786 5785 5784 5783 5782 5781 5781 5780 5779 5778 5778 5777 5776 5775 5774 5773 5772 5771 5770 5769 5768 5768 5768 5768 5767
5887 5888 5889 5891 5892 5893 5894 5893 5892 5891 5891 5890 5890 5890 5889 5888 5887 5886 5885 5883 5881 5880 5878 5876 5874 5872 5870 5867 5865 5862 5858 5854 5851 5848 5845 5842 5839 5836 5834 5832 5830 5827 5825 5822 5818 5815 5812 5809 5807 5804 5802 5801 5799 5797 5795 5794 5793 5792 5791 5790 5788 5787 5786 5785 5784 5783 5783 5782 5781 5780 5779 5778 5777 5776 5775 5774 5773 5772 5771 5770 5770 5770 5769 5769 5768
5884 5885 5887 5888 5890 5891 5890 5890 5889 5888 5888 5888 5887 5887 5886 5884 5883 5883 5882 5880 5878 5877 5875 5874 5872 5869 5867 5865 5862 5860 5856 5853 5849 5846 5844 5841 5838 5835 5833 5831 5830 5827 5825 5822 5819 5816 5813 5811 5808 5806 5804 5802 5801 5799 5797 5796 5795 5794 5793 5792 5791 5790 5789 5788 5787 5786 5785 5784 5783 5782 5781 5780 5780 5779 5777 5776 5775 5774 5773 5773 5772 5772 5771 5771 5770
5881 5882 5884 5885 5886 5887 5887 5887 5886 5886 5886 5885 5885 5884 5882 5880 5879 5879 5878 5877 5875 5874 5872 5871 5869 5867 5865 5862 5860 5857 5854 5851 5848 5845 5842 5840 5837 5834 5833 5831 5830 5828 5826 5823 5820 5817 5815 5812 5810 5808 5806 5804 5803 5801 5800 5799 5798 5797 5796 5795 5794 5793 5792 5791 5790 5789 5787 5787 5786 5785 5784 5783 5782 5781 5780 5779 5778 5777 5776 5775 5774 5774 5773 5772 5772
5878 5879 5881 5882 5883 5883 5883 5884 5884 5884 5883 5883 5881 5879 5878 5877 5876 5876 5875 5873 5872 5871 5869 5868 5866 5864 5862 5860 5858 5855 5852 5849 5846 5844 5841 5839 5836 5834 5832 5831 5830 5828 5826 5823 5821 5819 5817 5814 5812 5810 5808 5806 5805 5804 5803 5802 5801 5800 5799 5797 5796 5795 5794 5793 5792 5791 5790 5789 5788 5787 5786 5785 5784 5783 5782 5781 5780 5779 5778 5777 5776 5776 5775 5774 5773
5874 5876 5877 5878 5879 5880 5880 5881 5881 5880 5880 5879 5876 5875 5874 5874 5874 5873 5872 5870 5869 5868 5866 5865 5863 5862 5860 5858 5855 5853 5850 5847 5845 5843 5840 5838 5835 5833 5832 5831 5829 5828 5826 5824 5822 5820 5818 5816 5813 5812 5810 5808 5807 5806 5805 5804 5803 5802 5801 5799 5798 5797 5796 5794 5793 5792 5791 5790 5789 5788 5787 5786 5785 5784 5783 5782 5781 5780 5780 5779 5778 5777 5777 5776 5775
5870 5872 5873 5874 5875 5876 5877 5878 5877 5876 5875 5874 5872 5872 5871 5871 5870 5869 5868 5867 5866 5864 5863 5862 5860 5859 5857 5855 5853 5851 5848 5846 5843 5842 5839 5837 5835 5833 5832 5831 5829 5828 5826 5824 5822 5820 5819 5817 5815 5813 5812 5810 5809 5808 5807 5806 5805 5803 5802 5801 5800 5798 5797 5796 5795 5794 5793 5792 5791 5790 5789 5788 5787 5786 5785 5784 5783 5782 5781 5781 5780 5779 5778 5778 5777
5865 5868 5870 5871 5872 5873 5873 5873 5872 5872 5871 5870 5869 5869 5868 5867 5866 5866 5865 5863 5862 5861 5859 5858 5857 5856 5854 5853 5851 5848 5846 5844 5842 5840 5838 5836 5834 5833 5832 5830 5829 5827 5826 5824 5822 5821 5819 5818 5817 5815 5814 5812 5811 5810 5809 5807 5806 5805 5804 5803 5801 5800 5799 5798 5796 5795 5794 5793 5792 5791 5790 5789 5788 5787 5786 5785 5784 5784 5783 5782 5781 5780 5780 5779 5779
5860 5863 5865 5866 5867 5868 5869 5869 5869 5868 5867 5867 5867 5866 5865 5864 5863 5862 5861 5860 5858 5857 5856 5855 5854 5853 5852 5850 5848 5846 5844 5842 5840 5839 5837 5835 5834 5832 5831 5830 5829 5827 5825 5824 5822 5821 5820 5819 5818 5816 5815 5814 5813 5811 5810 5809 5808 5806 5805 5804 5803 5802 5800 5799 5798 5797 5795 5794 5793 5792 5791 5790 5789 5788 5787 5786 5786 5785 5784 5783 5782 5782 5781 5781 5780
5857 5858 5860 5862 5863 5864 5865 5866 5865 5864 5864 5864 5864 5863 5861 5860 5859 5858 5857 5856 5855 5854 5853 5852 5851 5851 5850 5848 5846 5844 5842 5840 5839 5838 5836 5834 5833 5832 5830 5829 5828 5826 5825 5824 5822 5821 5820 5819 5818 5817 5816 5815 5814 5812 5811 5810 5809 5808 5807 5805 5804 5802 5801 5800 5798 5797 5796 5795 5794 5793 5792 5791 5790 5789 5788 5787 5787 5786 5785 5784 5783 5783 5782 5781 5781
5853 5855 5856 5858 5859 5860 5861 5861 5860 5860 5860 5860 5860 5859 5858 5857 5856 5855 5854 5853 5852 5851 5850 5850 5849 5848 5847 5846 5843 5842 5840 5838 5837 5836 5835 5833 5832 5831 5830 5828 5827 5826 5824 5823 5822 5821 5820 5819 5818 5817 5816 5815 5814 5813 5812 5811 5810 5809 5808 5806 5805 5803 5801 5800 5798 5797 5796 5795 5794 5793 5792 5791 5791 5790 5789 5788 5787 5787 5786 5785 5784 5784 5783 5782 5782
5851 5852 5853 5855 5856 5857 5857 5857 5856 5856 5857 5857 5856 5855 5854 5853 5852 5852 5851 5851 5850 5849 5848 5847 5847 5846 5845 5843 5841 5840 5838 5837 5836 5835 5834 5832 5831 5830 5829 5827 5826 5825 5824 5823 5822 5821 5820 5820 5819 5817 5817 5816 5815 5814 5813 5812 5811 5810 5808 5807 5805 5803 5802 5800 5799 5797 5796 5795 5794 5794 5793 5792 5791 5790 5789 5789 5788 5787 5787 5786 5785 5784 5784 5783 5782
5848 5849 5851 5852 5852 5853 5853 5853 5853 5853 5854 5853 5852 5851 5850 5850 5849 5849 5849 5848 5847 5846 5846 5845 5845 5844 5843 5841 5839 5838 5836 5835 5834 5833 5832 5831 5830 5829 5827 5826 5825 5824 5823 5822 5822 5821 5820 5819 5819 5817 5817 5816 5815 5814 5813 5812 5811 5810 5808 5806 5805 5803 5802 5800 5799 5797 5796 5795 5795 5794 5793 5792 5791 5790 5790 5789 5788 5788 5787 5786 5786 5785 5784 5783 5783
5845 5846 5848 5849 5849 5849 5849 5849 5850 5850 5851 5850 5849 5848 5847 5847 5846 5846 5846 5845 5845 5844 5843 5842 5842 5841 5840 5839 5837 5836 5834 5833 5833 5832 5831 5830 5829 5828 5826 5825 5824 5823 5823 5822 5821 5820 5820 5819 5818 5817 5817 5816 5815 5814 5814 5813 5811 5810 5808 5806 5804 5803 5801 5800 5798 5797 5796 5795 5795 5794 5793 5792 5792 5791 5790 5789 5789 5788 5787 5786 5786 5785 5784 5783 5782
5842 5844 5845 5845 5845 5845 5846 5847 5847 5848 5847 5846 5845 5845 5844 5844 5843 5843 5843 5842 5842 5841 5840 5840 5839 5838 5837 5836 5835 5834 5832 5832 5831 5830 5829 5828 5828 5826 5825 5824 5823 5823 5822 5821 5821 5820 5819 5819 5818 5817 5816 5815 5815 5814 5813 5812 5811 5810 5808 5806 5805 5803 5801 5799 5798 5797 5796 5795 5794 5793 5793 5792 5792 5791 5790 5790 5789 5788 5787 5786 5785 5785 5784 5783 5782
5839 5840 5840 5841 5841 5842 5844 5845 5845 5845 5844 5843 5842 5842 5842 5841 5841 5841 5840 5839 5839 5838 5838 5837 5837 5836 5835 5834 5833 5831 5831 5830 5829 5828 5828 5827 5826 5825 5824 5823 5822 5822 5821 5821 5820 5820 5819 5818 5817 5817 5816 5815 5814 5814 5813 5812 5811 5809 5808 5806 5805 5803 5801 5800 5798 5797 5796 5795 5794 5793 5792 5792 5791 5790 5790 5789 5788 5788 5787 5786 5785 5784 5783 5781 5780
5835 5836 5836 5837 5838 5840 5841 5842 5842 5841 5841 5840 5840 5839 5839 5839 5838 5838 5837 5836 5836 5836 5835 5835 5834 5833 5833 5831 5830 5829 5829 5828 5828 5827 5826 5826 5825 5824 5823 5822 5821 5821 5820 5820 5820 5819 5818 5818 5817 5816 5815 5814 5814 5813 5812 5811 5810 5809 5807 5805 5804 5802 5801 5800 5798 5797 5795 5795 5794 5793 5792 5791 5790 5790 5789 5788 5788 5787 5786 5785 5784 5783 5782 5780 5779
5831 5832 5833 5834 5836 5837 5838 5839 5838 5838 5838 5837 5837 5837 5836 5836 5835 5835 5834 5834 5833 5833 5833 5832 5831 5831 5830 5829 5828 5827 5827 5827 5826 5826 5825 5825 5824 5822 5821 5821 5820 5820 5819 5819 5819 5819 5818 5817 5816 5815 5814 5813 5813 5812 5811 5810 5809 5808 5806 5805 5803 5802 5800 5799 5798 5797 5796 5794 5794 5793 5792 5791 5790 5789 5788 5787 5787 5786 5785 5784 5783 5782 5780 5779 5778
5828 5829 5830 5832 5833 5835 5835 5835 5835 5835 5834 5834 5834 5834 5834 5833 5832 5831 5831 5831 5830 5830 5830 5829 5829 5828 5827 5826 5825 5825 5825 5825 5825 5824 5824 5823 5822 5821 5820 5819 5819 5818 5818 5818 5818 5818 5817 5816 5816 5815 5814 5813 5812 5811 5810 5809 5808 5807 5806 5804 5803 5801 5800 5799 5798 5797 5796 5794 5793 5792 5791 5791 5790 5789 5788 5787 5786 5785 5784 5783 5781 5780 5779 5778 5776
5825 5827 5828 5830 5831 5832 5832 5832 5831 5831 5832 5832 5832 5832 5831 5830 5829 5829 5828 5828 5828 5827 5827 5826 5826 5825 5824 5823 5823 5822 5823 5823 5823 5823 5823 5822 5821 5820 5819 5818 5818 5818 5818 5818 5818 5818 5817 5816 5815 5814 5813 5812 5811 5810 5809 5809 5808 5807 5805 5804 5802 5801 5800 5798 5797 5796 5795 5794 5793 5792 5791 5790 5789 5788 5787 5786 5785 5784 5783 5781 5780 5778 5777 5775 5774
5822 5824 5826 5827 5828 5828 5828 5828 5828 5829 5829 5829 5829 5829 5828 5828 5827 5826 5826 5825 5825 5824 5824 5823 5823 5822 5821 5820 5820 5820 5821 5821 5821 5822 5822 5821 5820 5819 5819 5818 5818 5817 5817 5817 5818 5817 5817 5815 5814 5814 5813 5812 5811 5810 5809 5808 5807 5806 5805 5804 5802 5801 5799 5798 5797 5796 5795 5794 5792 5791 5790 5789 5788 5787 5786 5785 5783 5782 5781 5780 5778 5776 5775 5773 5771
5819 5821 5823 5824 5824 5824 5824 5825 5825 5826 5827 5827 5826 5826 5826 5825 5825 5824 5823 5823 5822 5821 5821 5820 5819 5819 5818 5818 5818 5818 5819 5819 5820 5820 5820 5820 5819 5819 5818 5818 5818 5817 5817 5817 5817 5817 5816 5815 5814 5813 5812 5811 5810 5809 5808 5807 5806 5805 5804 5803 5802 5801 5799 5798 5797 5795 5794 5793 5792 5791 5789 5788 5787 5786 5784 5783 5782 5780 5779 5778 5776 5774 5773 5771 5769
5816 5818 5819 5820 5820 5820 5821 5821 5822 5823 5823 5823 5823 5823 5823 5822 5822 5821 5821 5820 5819 5818 5818 5817 5816 5816 5816 5816 5816 5816 5817 5817 5818 5819 5819 5819 5818 5818 5818 5818 5818 5818 5817 5817 5816 5816 5815 5814 5813 5812 5812 5811 5810 5809 5808 5806 5805 5804 5803 5802 5801 5800 5799 5797 5796 5795 5793 5792 5791 5789 5788 5787 5785 5784 5783 5781 5780 5778 5777 5775 5774 5772 5770 5768 5766
5814 5815 5816 5816 5816 5817 5817 5818 5819 5819 5819 5819 5819 5819 5820 5820 5819 5819 5818 5818 5817 5816 5815 5814 5813 5813 5813 5813 5814 5814 5815 5816 5816 5817 5817 5817 5817 5817 5817 5817 5817 5817 5817 5817 5816 5815 5815 5814 5813 5812 5811 5810 5809 5808 5807 5806 5804 5803 5802 5801 5800 5799 5798 5796 5795 5794 5792 5791 5790 5788 5787 5785 5784 5782 5781 5779 5778 5776 5774 5773 5771 5769 5767 5765 5763
5811 5812 5812 5812 5813 5813 5814 5815 5815 5815 5815 5815 5815 5816 5817 5817 5816 5816 5815 5815 5814 5813 5812 5811 5810 5811 5811 5811 5812 5812 5813 5814 5815 5815 5816 5816 5816 5816 5816 5816 5816 5816 5816 5816 5816 5815 5814 5813 5812 5811 5810 5809 5808 5807 5806 5805 5803 5802 5801 5800 5799 5798 5797 5795 5794 5792 5791 5790 5788 5787 5785 5784 5782 5780 5779 5777 5775 5773 5772 5770 5768 5766 5764 5762 5760
5807 5808 5809 5809 5810 5810 5811 5812 5812 5811 5811 5811 5811 5813 5814 5814 5813 5813 5813 5812 5811 5809 5808 5808 5808 5808 5809 5809 5810 5811 5811 5812 5813 5813 5814 5814 5814 5814 5815 5815 5815 5815 5815 5815 5814 5814 5813 5812 5811 5810 5809 5808 5807 5806 5804 5803 5802 5801 5800 5799 5798 5796 5795 5794 5792 5791 5790 5788 5786 5785 5783 5782 5780 5778 5776 5774 5773 5771 5769 5767 5765 5763 5761 5759 5757
5803 5804 5805 5807 5807 5808 5808 5809 5809 5808 5808 5808 5809 5810 5811 5811 5811 5810 5810 5809 5807 5806 5805 5805 5805 5806 5807 5807 5808 5809 5810 5811 5811 5812 5812 5812 5812 5812 5813 5813 5813 5813 5813 5813 5813 5812 5811 5810 5809 5808 5807 5806 5805 5804 5803 5802 5801 5799 5798 5797 5796 5795 5793 5792 5791 5789 5788 5786 5784 5783 5781 5779 5777 5776 5774 5772 5770 5768 5766 5764 5762 5760 5758 5756 5754
5800 5801 5802 5803 5804 5805 5806 5806 5806 5806 5806 5807 5807 5808 5808 5808 5808 5808 5807 5806 5804 5803 5802 5802 5802 5803 5804 5805 5806 5807 5808 5809 5810 5810 5810 5810 5810 5810 5811 5811 5812 5812 5811 5811 5811 5810 5810 5809 5808 5806 5805 5804 5803 5802 5801 5800 5799 5798 5796 5795 5794 5792 5791 5790 5788 5787 5785 5784 5782 5780 5778 5777 5775 5773 5771 5770 5768 5766 5764 5762 5760 5758 5755 5753 5751
5797 5798 5799 5800 5801 5802 5803 5803 5804 5804 5804 5804 5805 5805 5806 5805 5805 5805 5804 5803 5801 5800 5799 5799 5800 5801 5802 5803 5804 5806 5807 5807 5808 5808 5808 5808 5808 5808 5809 5809 5810 5810 5809 5809 5809 5808 5808 5807 5806 5804 5803 5802 5801 5800 5799 5798 5797 5796 5794 5793 5792 5790 5789 5787 5786 5784 5783 5781 5779 5778 5776 5774 5772 5771 5769 5767 5765 5763 5761 5759 5757 5755 5752 5750 5748
5793 5794 5795 5796 5798 5799 5799 5800 5801 5801 5802 5802 5802 5803 5802 5802 5802 5802 5801 5800 5799 5798 5797 5797 5798 5799 5800 5801 5802 5804 5805 5805 5806 5806 5806 5806 5806 5806 5807 5807 5807 5807 5807 5807 5806 5806 5805 5804 5803 5802 5801 5800 5799 5798 5797 5796 5795 5793 5792 5791 5789 5788 5787 5785 5783 5782 5780 5779 5777 5775 5774 5772 5770 5768 5766 5764 5762 5760 5758 5756 5754 5752 5749 5747 5744
5790 5790 5792 5793 5794 5795 5796 5797 5798 5798 5799 5799 5800 5800 5799 5799 5799 5798 5798 5797 5796 5795 5795 5795 5796 5796 5798 5799 5800 5801 5803 5803 5804 5804 5804 5804 5804 5804 5804 5804 5805 5805 5804 5804 5804 5803 5802 5802 5801 5800 5799 5798 5796 5795 5794 5793 5792 5791 5790 5788 5787 5786 5784 5783 5781 5779 5778 5776 5774 5773 5771 5769 5767 5765 5763 5761 5759 5757 5755 5752 5750 5748 5746 5743 5741